Location: Invercargill
(46.4000°S, 168.3500°E)
Time: 17:58:02
(UTC+12:00)

SJ 16-02 - Pass Details

Date: 14 May 2021
Orbit: 606 x 616 km, 75.0° (Epoch: 14 June)

Event Time Altitude Azimuth Distance (km) Brightness Sun altitude
Rises 18:59:29 0° 194° (SSW) 2,913 4.9 -16.2°
Reaches altitude 10° 19:01:54 10° 185° (S) 2,002 3.9 -16.6°
Maximum altitude 19:06:02 36° 118° (ESE) 997 1.9 -17.3°
Enters shadow 19:06:31 35° 103° (ESE) 1,017 1.9 -17.4°
